Location: Unspecified
(51.6250°N, 0.8230°E)
Time: 09:36:25
(UTC+01:00)

Okean 3 - Pass Details

Date: 05 August 2020
Orbit: 576 x 601 km, 82.5° (Epoch: 23 September)

Event Time Altitude Azimuth Distance (km) Brightness Sun altitude
Rises 23:19:40 0° 353° (N) 2,843 8.3 -18.1°
Reaches altitude 10° 23:21:58 10° 0° (N) 1,940 7.1 -18.3°
Maximum altitude 23:26:05 45° 74° (ENE) 819 4.1 -18.6°
Enters shadow 23:27:17 35° 117° (ESE) 966 4.1 -18.6°
